Overview Statistics Trail Chart Weather Telemetry Raw packets
 

This is the latest recevied weather packets stored in our database for station/object SV9TNF-54. If no packets are shown the sender has not sent any weather packets the latest 10 day(s).

<< 68 69 70 71 72 73 74 >>
Time Temp. Humidity Pressure Rain* Wind** Luminosity Snow
1788149558 29.44° C 40% 1013.6 hPa 0 mm 38.45 m/s, 348° - -
1788149258 29.44° C 40% 1013.6 hPa 0 mm 38.45 m/s, 348° - -
1788148958 29.44° C 40% 1013.6 hPa 0 mm 38.45 m/s, 348° - -
1788148658 29.44° C 40% 1013.6 hPa 0 mm 38.45 m/s, 348° - -
1788148358 29.44° C 40% 1013.6 hPa 0 mm 38.45 m/s, 348° - -
1788148057 29.44° C 40% 1013.6 hPa 0 mm 38.45 m/s, 348° - -
1788147757 29.44° C 40% 1013.6 hPa 0 mm 40.23 m/s, 22° - -
1788147457 29.44° C 40% 1013.6 hPa 0 mm 40.23 m/s, 22° - -
1788147157 29.44° C 40% 1013.6 hPa 0 mm 40.23 m/s, 22° - -
1788146857 29.44° C 40% 1013.6 hPa 0 mm 35.32 m/s, 16° - -
1788146557 29.44° C 40% 1013.6 hPa 0 mm 35.32 m/s, 16° - -
1788146257 29.44° C 40% 1013.6 hPa 0 mm 35.32 m/s, 16° - -
1788145957 29.44° C 40% 1013.6 hPa 0 mm 35.32 m/s, 16° - -
1788145657 29.44° C 40% 1013.6 hPa 0 mm 35.32 m/s, 16° - -
1788145357 29.44° C 40% 1013.6 hPa 0 mm 35.32 m/s, 16° - -
1788145056 29.44° C 40% 1013.6 hPa 0 mm 35.32 m/s, 16° - -
1788144757 29.44° C 40% 1013.6 hPa 0 mm 35.32 m/s, 16° - -
1788144456 29.44° C 40% 1013.6 hPa 0 mm 35.32 m/s, 16° - -
1788144156 29.44° C 40% 1013.6 hPa 0 mm 29.06 m/s, 34° - -
1788143856 29.44° C 40% 1013.6 hPa 0 mm 29.06 m/s, 34° - -
1788143556 29.44° C 40% 1013.6 hPa 0 mm 29.06 m/s, 34° - -
1788143256 29.44° C 40% 1013.6 hPa 0 mm 25.48 m/s, 43° - -
1788142956 29.44° C 40% 1013.6 hPa 0 mm 25.48 m/s, 43° - -
1788142656 29.44° C 40% 1013.6 hPa 0 mm 25.48 m/s, 43° - -
1788142356 29.44° C 39% 1013.9 hPa 0 mm 29.06 m/s, 352° - -

* Rain latest hour (hover to see other rain measurements)
** Current wind speed in m/s (hover to see current wind gust speed)